Location: Paddlesworth
(51.1000°N, 1.1333°E)
Time: 13:59:19
(UTC+00:00)

deb Kosmos-1763 - Pass Details

Date: 11 May 2021
Orbit: 447 x 457 km, 74.0° (Epoch: 19 June)

Event Time Altitude Azimuth Distance (km) Brightness Sun altitude
Rises 20:41:12 0° 338° (NNW) 2,487 9.0 -9.2°
Reaches altitude 10° 20:43:20 10° 344° (NNW) 1,611 7.8 -9.5°
Maximum altitude 20:46:49 51° 62° (ENE) 584 4.3 -9.8°
Enters shadow 20:49:33 15° 136° (SE) 1,323 5.6 -10.1°
